TimeAKDT,TemperatureF,Dew PointF,Humidity,Sea Level PressureIn,VisibilityMPH,Wind Direction,Wind SpeedMPH,Gust SpeedMPH,PrecipitationIn,Events,Conditions,WindDirDegrees,DateUTC
12:54 AM,21.9,15.1,75,30.13,10.0,North,9.2,-,N/A,,Clear,10,2013-04-18 08:54:00
1:54 AM,23.0,15.1,72,30.13,10.0,North,10.4,-,N/A,,Clear,10,2013-04-18 09:54:00
2:54 AM,21.9,14.0,72,30.13,10.0,NNE,10.4,-,N/A,,Clear,20,2013-04-18 10:54:00
3:54 AM,21.0,12.9,71,30.12,10.0,North,9.2,-,N/A,,Clear,10,2013-04-18 11:54:00
4:54 AM,19.9,15.1,81,30.12,10.0,North,6.9,-,N/A,,Clear,360,2013-04-18 12:54:00
5:54 AM,18.0,15.1,88,30.12,10.0,North,5.8,-,N/A,,Clear,360,2013-04-18 13:54:00
6:54 AM,17.1,14.0,88,30.12,10.0,North,5.8,-,N/A,,Clear,360,2013-04-18 14:54:00
7:54 AM,18.0,12.9,81,30.12,10.0,North,5.8,-,N/A,,Clear,360,2013-04-18 15:54:00
8:54 AM,23.0,15.1,72,30.13,10.0,North,3.5,-,N/A,,Clear,350,2013-04-18 16:54:00
9:54 AM,28.9,17.1,61,30.14,10.0,North,8.1,-,N/A,,Clear,350,2013-04-18 17:54:00
10:54 AM,34.0,19.0,54,30.14,10.0,North,9.2,-,N/A,,Clear,350,2013-04-18 18:54:00
11:54 AM,39.0,17.1,41,30.14,10.0,North,8.1,-,N/A,,Clear,360,2013-04-18 19:54:00
12:54 PM,41.0,14.0,33,30.14,10.0,North,4.6,-,N/A,,Clear,10,2013-04-18 20:54:00
1:54 PM,44.1,10.9,26,30.13,10.0,Variable,3.5,-,N/A,,Clear,0,2013-04-18 21:54:00
2:54 PM,46.0,19.9,35,30.13,10.0,NNW,15.0,20.7,N/A,,Clear,340,2013-04-18 22:54:00
3:54 PM,46.9,19.0,33,30.13,10.0,North,15.0,23.0,N/A,,Clear,360,2013-04-18 23:54:00
4:54 PM,46.0,18.0,33,30.13,10.0,NNE,18.4,24.2,N/A,,Clear,20,2013-04-19 00:54:00
5:54 PM,44.1,18.0,35,30.13,10.0,North,17.3,25.3,N/A,,Clear,10,2013-04-19 01:54:00
6:54 PM,41.0,19.0,41,30.13,10.0,North,18.4,25.3,N/A,,Clear,360,2013-04-19 02:54:00
7:54 PM,39.0,19.0,45,30.14,10.0,North,17.3,-,N/A,,Clear,360,2013-04-19 03:54:00
8:54 PM,37.0,19.9,50,30.14,10.0,North,13.8,-,N/A,,Clear,360,2013-04-19 04:54:00
9:54 PM,33.1,21.0,61,30.17,10.0,North,8.1,-,N/A,,Clear,360,2013-04-19 05:54:00
10:54 PM,30.0,21.0,69,30.17,10.0,NNW,5.8,-,N/A,,Clear,340,2013-04-19 06:54:00
11:54 PM,28.9,21.0,72,30.18,10.0,NNW,8.1,-,N/A,,Clear,340,2013-04-19 07:54:00